FW7253 Weather Reports


time (UTC)temp
C
wind
direction
speed
KPH
gust
KPH
rain 1hr
cm
rain 24hr
cm
rain mn
cm
humidity
%
barometer
mb
20260508102533 13 210 12.9 22.5 0.00 0.00 0.00 51 1023.7
20260508102033 13 188 9.7 22.5 0.00 0.00 0.00 51 1023.5
20260508101551 13 100 11.3 19.3 0.00 0.00 0.00 52 1023.5
20260508101034 13 186 11.3 19.3 0.00 0.00 0.00 50 1023.6
20260508100533 14 214 11.3 17.7 0.00 0.00 0.00 50 1023.5
20260508100040 14 103 11.3 25.7 0.00 0.00 0.00 52 1023.5
20260508095533 14 181 9.7 25.7 0.00 0.00 0.00 50 1023.5
20260508095033 13 214 17.7 24.1 0.00 0.00 0.00 49 1023.6
20260508094540 13 224 9.7 20.9 0.00 0.00 0.00 52 1023.6
20260508094033 13 113 8.0 17.7 0.00 0.00 0.00 53 1023.6
20260508093536 13 126 11.3 22.5 0.00 0.00 0.00 53 1023.7
20260508093046 13 179 9.7 22.5 0.00 0.00 0.00 51 1023.7
20260508092535 13 124 9.7 20.9 0.00 0.00 0.00 53 1023.5
20260508092033 13 160 8.0 20.9 0.00 0.00 0.00 54 1023.7
20260508091545 12 226 9.7 20.9 0.00 0.00 0.00 52 1023.7
20260508091033 12 221 9.7 19.3 0.00 0.00 0.00 51 1023.7
20260508090533 12 134 8.0 19.3 0.00 0.00 0.00 51 1023.7
20260508090050 12 181 8.0 19.3 0.00 0.00 0.00 50 1023.8
20260508085534 12 115 6.4 20.9 0.00 0.00 0.00 52 1023.7
20260508085033 12 162 8.0 20.9 0.00 0.00 0.00 51 1023.8
20260508084539 12 147 11.3 20.9 0.00 0.00 0.00 52 1023.7
20260508084034 12 95 4.8 19.3 0.00 0.00 0.00 55 1023.6
20260508083532 11 173 6.4 19.3 0.00 0.00 0.00 57 1023.8
20260508083149 11 107 4.8 14.5 0.00 0.00 0.00 56 1023.7
20260508082536 11 173 4.8 16.1 0.00 0.00 0.00 58 1023.9
20260508082034 11 90 6.4 16.1 0.00 0.00 0.00 59 1023.8
20260508081548 11 109 4.8 16.1 0.00 0.00 0.00 58 1023.7
20260508081033 11 169 4.8 14.5 0.00 0.00 0.00 59 1023.8
20260508080535 11 222 6.4 14.5 0.00 0.00 0.00 59 1023.7
20260508080048 10 225 4.8 14.5 0.00 0.00 0.00 57 1023.7
20260508075534 10 202 4.8 14.5 0.00 0.00 0.00 57 1023.7
20260508075033 10 122 6.4 14.5 0.00 0.00 0.00 58 1023.7
20260508074547 10 154 4.8 11.3 0.00 0.00 0.00 60 1023.7
20260508074035 10 124 4.8 11.3 0.00 0.00 0.00 60 1023.6
20260508073534 10 104 3.2 9.7 0.00 0.00 0.00 64 1023.6
20260508073045 9 89 3.2 11.3 0.00 0.00 0.00 65 1023.6
20260508072534 8 89 4.8 11.3 0.00 0.00 0.00 67 1023.7
20260508072034 8 174 3.2 9.7 0.00 0.00 0.00 68 1023.7
20260508071541 8 90 1.6 6.4 0.00 0.00 0.00 68 1023.6
20260508071033 7 148 0.0 4.8 0.00 0.00 0.00 68 1023.6
20260508070534 7 0 3.2 4.8 0.00 0.00 0.00 67 1023.6
20260508070040 7 222 3.2 4.8 0.00 0.00 0.00 68 1023.5
20260508065533 7 0 1.6 4.8 0.00 0.00 0.00 68 1023.5
20260508065035 6 0 0.0 1.6 0.00 0.00 0.00 65 1023.6
20260508064542 6 0 0.0 1.6 0.00 0.00 0.00 62 1023.6
20260508064033 5 0 0.0 1.6 0.00 0.00 0.00 60 1023.4
20260508063533 5 219 1.6 1.6 0.00 0.00 0.00 58 1023.4
20260508063056 5 209 0.0 1.6 0.00 0.00 0.00 60 1023.5
20260508062533 5 0 0.0 3.2 0.00 0.00 0.00 63 1023.5
20260508062033 5 280 0.0 3.2 0.00 0.00 0.00 63 1023.3
20260508061548 4 294 1.6 3.2 0.00 0.00 0.00 63 1023.3
20260508061034 3 287 0.0 1.6 0.00 0.00 0.00 68 1023.1
20260508060533 3 0 0.0 0.0 0.00 0.00 0.00 72 1023.3
20260508060046 3 0 0.0 0.0 0.00 0.00 0.00 76 1023.1
20260508055533 2 0 0.0 0.0 0.00 0.00 0.00 77 1023.1
20260508055033 2 0 0.0 0.0 0.00 0.00 0.00 78 1023.1
20260508054544 1 0 0.0 0.0 0.00 0.00 0.00 79 1023.0
20260508054033 1 0 0.0 0.0 0.00 0.00 0.00 79 1023.0
20260508053533 1 0 0.0 0.0 0.00 0.00 0.00 80 1022.9
20260508053042 1 0 0.0 0.0 0.00 0.00 0.00 80 1022.9
20260508052533 0 0 0.0 0.0 0.00 0.00 0.00 83 1023.0
20260508052032 0 0 0.0 0.0 0.00 0.00 0.00 85 1023.0
20260508051543 0 0 0.0 0.0 0.00 0.00 0.00 85 1023.0
20260508051033 0 0 0.0 0.0 0.00 0.00 0.00 86 1022.9
20260508050533 0 0 0.0 1.6 0.00 0.00 0.00 86 1022.9
20260508050048 0 0 0.0 1.6 0.00 0.00 0.00 87 1022.8
20260508045532 -1 0 0.0 0.0 0.00 0.00 0.00 86 1022.8
20260508045032 -1 0 0.0 0.0 0.00 0.00 0.00 86 1022.7
20260508044545 -1 0 0.0 0.0 0.00 0.00 0.00 86 1022.7
20260508044032 -1 0 0.0 0.0 0.00 0.00 0.00 86 1022.6
20260508043533 -1 0 0.0 0.0 0.00 0.00 0.00 86 1022.4
20260508043056 -1 0 0.0 0.0 0.00 0.00 0.00 85 1022.5
20260508042533 -1 0 0.0 0.0 0.00 0.00 0.00 85 1022.4
20260508042035 -1 0 0.0 0.0 0.00 0.00 0.00 85 1022.4
20260508041550 -1 0 0.0 0.0 0.00 0.00 0.00 85 1022.4
20260508041035 -1 0 0.0 0.0 0.00 0.00 0.00 84 1022.3
20260508040533 -1 0 0.0 0.0 0.00 0.00 0.00 84 1022.3
20260508040042 -1 0 0.0 0.0 0.00 0.00 0.00 84 1022.3
20260508035533 -1 0 0.0 0.0 0.00 0.00 0.00 84 1022.2
20260508035033 -1 0 0.0 0.0 0.00 0.00 0.00 85 1022.2
20260508034548 -1 0 0.0 0.0 0.00 0.00 0.00 86 1022.2
20260508034032 -1 0 0.0 0.0 0.00 0.00 0.00 87 1022.2
20260508033532 -1 0 0.0 0.0 0.00 0.00 0.00 87 1022.1
20260508033039 -1 0 0.0 0.0 0.00 0.00 0.00 87 1022.1
20260508032533 -1 0 0.0 0.0 0.00 0.00 0.00 87 1022.0
20260508032035 -1 0 0.0 0.0 0.00 0.00 0.00 87 1022.1
20260508031544 -1 0 0.0 0.0 0.00 0.00 0.00 87 1022.1
20260508031033 -1 0 0.0 0.0 0.00 0.00 0.00 87 1022.1
20260508030534 -1 0 0.0 0.0 0.00 0.00 0.00 86 1022.2
20260508030045 -1 0 0.0 0.0 0.00 0.00 0.00 86 1022.1
20260508025533 -2 0 0.0 0.0 0.00 0.00 0.00 85 1022.0
20260508025034 -1 0 0.0 0.0 0.00 0.00 0.00 85 1022.1
20260508024541 -1 0 0.0 0.0 0.00 0.00 0.00 86 1022.0
20260508024033 -2 0 0.0 0.0 0.00 0.00 0.00 85 1021.9
20260508023533 -2 0 0.0 0.0 0.00 0.00 0.00 85 1021.9
20260508023038 -2 0 0.0 0.0 0.00 0.00 0.00 84 1021.9
20260508022533 -2 0 0.0 0.0 0.00 0.00 0.00 85 1021.8
20260508022033 -1 0 0.0 0.0 0.00 0.00 0.00 86 1021.8
20260508021551 -1 0 0.0 0.0 0.00 0.00 0.00 86 1021.9
20260508021032 -1 0 0.0 0.0 0.00 0.00 0.00 86 1021.8
20260508020532 -2 0 0.0 0.0 0.00 0.00 0.00 86 1021.8
20260508020049 -2 0 0.0 0.0 0.00 0.00 0.00 85 1021.8
20260508015532 -1 0 0.0 0.0 0.00 0.00 0.00 85 1021.8
20260508015032 -1 0 0.0 0.0 0.00 0.00 0.00 85 1021.8
20260508014544 -1 0 0.0 0.0 0.00 0.00 0.00 84 1021.8
20260508014033 -1 0 0.0 0.0 0.00 0.00 0.00 84 1021.9
20260508013533 -1 0 0.0 0.0 0.00 0.00 0.00 83 1021.7
20260508013053 -1 0 0.0 0.0 0.00 0.00 0.00 83 1021.7
20260508012533 -1 0 0.0 0.0 0.00 0.00 0.00 83 1021.6
20260508012033 -1 0 0.0 0.0 0.00 0.00 0.00 83 1021.6
20260508011543 -1 0 0.0 0.0 0.00 0.00 0.00 80 1021.7
20260508011033 -1 0 0.0 0.0 0.00 0.00 0.00 78 1021.6
20260508010534 -1 0 0.0 0.0 0.00 0.00 0.00 79 1021.3
20260508010050 -1 0 0.0 0.0 0.00 0.00 0.00 80 1021.1
20260508005533 -1 0 0.0 0.0 0.00 0.00 0.00 79 1021.2
20260508005036 -1 0 0.0 0.0 0.00 0.00 0.00 79 1021.2
20260508004545 0 0 0.0 0.0 0.00 0.00 0.00 79 1021.2
20260508004035 0 0 0.0 0.0 0.00 0.00 0.00 79 1021.2
20260508003532 0 0 0.0 0.0 0.00 0.00 0.00 77 1021.1
20260508003041 0 0 0.0 0.0 0.00 0.00 0.00 77 1021.1
20260508002532 0 0 0.0 0.0 0.00 0.00 0.00 77 1020.9
20260508002032 0 0 0.0 0.0 0.00 0.00 0.00 75 1020.8
20260508001607 0 0 0.0 0.0 0.00 0.00 0.00 73 1020.9
20260508001032 0 0 0.0 0.0 0.00 0.00 0.00 74 1020.9
20260508000533 0 0 0.0 0.0 0.00 0.00 0.00 75 1020.9
20260508000040 0 0 0.0 0.0 0.00 0.00 0.00 74 1020.9
20260507235533 0 0 0.0 0.0 0.00 0.00 0.00 74 1020.8
20260507235032 0 0 0.0 0.0 0.00 0.00 0.00 76 1020.9
20260507234547 0 0 0.0 0.0 0.00 0.00 0.00 77 1020.9
20260507234058 0 0 0.0 0.0 0.00 0.00 0.00 78 1021.0
20260507233533 0 0 0.0 0.0 0.00 0.00 0.00 77 1020.9
20260507233046 0 0 0.0 0.0 0.00 0.00 0.00 78 1020.7
20260507232534 0 0 0.0 0.0 0.00 0.00 0.00 79 1020.7
20260507232033 0 0 0.0 0.0 0.00 0.00 0.00 79 1020.7
20260507231545 0 0 0.0 0.0 0.00 0.00 0.00 79 1020.7
20260507231033 0 0 0.0 1.6 0.00 0.00 0.00 79 1020.7
20260507230534 1 0 0.0 1.6 0.00 0.00 0.00 78 1020.6
20260507230044 1 162 0.0 1.6 0.00 0.00 0.00 76 1020.7
20260507225538 1 0 0.0 0.0 0.00 0.00 0.00 68 1020.6
20260507225035 1 0 0.0 0.0 0.00 0.00 0.00 67 1020.4
20260507224554 1 0 0.0 0.0 0.00 0.00 0.00 66 1020.5
20260507224035 1 0 0.0 0.0 0.00 0.00 0.00 67 1020.4
20260507223535 1 0 0.0 0.0 0.00 0.00 0.00 67 1020.4
20260507223039 2 0 0.0 0.0 0.00 0.00 0.00 68 1020.5
20260507222535 2 0 0.0 0.0 0.00 0.00 0.00 65 1020.4
20260507222034 2 0 0.0 0.0 0.00 0.00 0.00 64 1020.4
20260507221547 2 0 0.0 0.0 0.00 0.00 0.00 63 1020.4
20260507221034 2 0 0.0 0.0 0.00 0.00 0.00 62 1020.4
20260507220534 2 0 0.0 1.6 0.00 0.00 0.00 61 1020.3
20260507220048 2 0 0.0 1.6 0.00 0.00 0.00 60 1020.3
20260507215536 3 262 0.0 0.0 0.00 0.00 0.00 61 1020.4
20260507215035 3 0 0.0 0.0 0.00 0.00 0.00 61 1020.3
20260507214548 3 0 0.0 0.0 0.00 0.00 0.00 61 1020.4
20260507214035 3 0 0.0 0.0 0.00 0.00 0.00 59 1020.4
20260507213534 4 0 0.0 0.0 0.00 0.00 0.00 56 1020.2
20260507213043 4 0 0.0 0.0 0.00 0.00 0.00 55 1020.3
20260507212534 4 0 0.0 0.0 0.00 0.00 0.00 58 1020.3
20260507212034 5 0 0.0 0.0 0.00 0.00 0.00 55 1020.3
20260507211543 4 0 0.0 0.0 0.00 0.00 0.00 56 1020.2
20260507211034 4 0 0.0 0.0 0.00 0.00 0.00 56 1020.1
20260507210539 5 0 0.0 0.0 0.00 0.00 0.00 57 1020.1
20260507210041 5 0 0.0 0.0 0.00 0.00 0.00 55 1020.1
20260507205536 5 0 0.0 0.0 0.00 0.00 0.00 54 1020.2
20260507205037 6 0 0.0 0.0 0.00 0.00 0.00 53 1020.1
20260507204552 6 0 0.0 0.0 0.00 0.00 0.00 51 1019.9
20260507204034 6 0 0.0 1.6 0.00 0.00 0.00 50 1019.8
20260507203535 6 0 0.0 1.6 0.00 0.00 0.00 49 1019.8
20260507203048 6 0 0.0 1.6 0.00 0.00 0.00 49 1019.9
20260507202536 6 0 0.0 1.6 0.00 0.00 0.00 49 1019.8
20260507202038 6 0 0.0 1.6 0.00 0.00 0.00 49 1019.8
20260507201552 6 259 0.0 1.6 0.00 0.00 0.00 50 1019.8
20260507201036 7 0 0.0 1.6 0.00 0.00 0.00 49 1019.8
20260507200536 7 0 0.0 3.2 0.00 0.00 0.00 48 1019.8
20260507200043 7 0 0.0 3.2 0.00 0.00 0.00 48 1019.7
20260507195534 7 0 0.0 3.2 0.00 0.00 0.00 46 1019.7
20260507195037 7 245 0.0 3.2 0.00 0.00 0.00 44 1019.6
20260507194541 8 0 0.0 6.4 0.00 0.00 0.00 42 1019.6
20260507194036 8 205 1.6 6.4 0.00 0.00 0.00 42 1019.5
20260507193535 8 0 0.0 1.6 0.00 0.00 0.00 40 1019.5
20260507193039 8 137 0.0 3.2 0.00 0.00 0.00 40 1019.3
20260507192535 8 0 0.0 3.2 0.00 0.00 0.00 39 1019.3
20260507192034 8 153 0.0 3.2 0.00 0.00 0.00 38 1019.2
20260507191552 8 250 0.0 3.2 0.00 0.00 0.00 38 1019.2
20260507191034 9 0 0.0 3.2 0.00 0.00 0.00 36 1019.2
20260507190535 9 276 1.6 3.2 0.00 0.00 0.00 36 1019.1
20260507190052 9 0 0.0 1.6 0.00 0.00 0.00 36 1019.1
20260507185534 10 0 0.0 3.2 0.00 0.00 0.00 35 1019.1
20260507185038 10 231 1.6 3.2 0.00 0.00 0.00 35 1019.0
20260507184548 10 0 0.0 3.2 0.00 0.00 0.00 35 1019.0
20260507184034 10 215 0.0 3.2 0.00 0.00 0.00 33 1018.9
20260507183535 10 215 1.6 8.0 0.00 0.00 0.00 34 1018.9
20260507183044 11 237 3.2 8.0 0.00 0.00 0.00 33 1018.9
20260507182534 11 215 3.2 8.0 0.00 0.00 0.00 33 1018.8
20260507182035 11 210 3.2 8.0 0.00 0.00 0.00 33 1018.9
20260507181540 11 162 4.8 8.0 0.00 0.00 0.00 32 1018.8
20260507181035 11 217 4.8 11.3 0.00 0.00 0.00 32 1018.8
20260507180535 11 229 6.4 12.9 0.00 0.00 0.00 32 1018.8
20260507180039 11 231 8.0 12.9 0.00 0.00 0.00 33 1018.7
20260507175534 11 221 6.4 14.5 0.00 0.00 0.00 32 1018.7
20260507175035 12 217 8.0 14.5 0.00 0.00 0.00 30 1018.7
20260507174545 12 206 8.0 16.1 0.00 0.00 0.00 32 1018.6
20260507174034 12 191 9.7 16.1 0.00 0.00 0.00 31 1018.6
20260507173539 12 169 9.7 16.1 0.00 0.00 0.00 31 1018.7
20260507173046 12 218 8.0 16.1 0.00 0.00 0.00 30 1018.5
20260507172536 12 205 4.8 11.3 0.00 0.00 0.00 33 1018.5
20260507172034 12 157 4.8 11.3 0.00 0.00 0.00 32 1018.5
20260507171543 12 225 8.0 16.1 0.00 0.00 0.00 32 1018.5
20260507171035 12 207 9.7 16.1 0.00 0.00 0.00 31 1018.4
20260507170535 12 209 8.0 17.7 0.00 0.00 0.00 31 1018.4
20260507170049 12 240 6.4 17.7 0.00 0.00 0.00 32 1018.4
20260507165534 12 176 9.7 19.3 0.00 0.00 0.00 31 1018.3
20260507165035 12 209 8.0 19.3 0.00 0.00 0.00 33 1018.5
20260507164547 12 173 4.8 17.7 0.00 0.00 0.00 31 1018.4
20260507164040 12 174 8.0 17.7 0.00 0.00 0.00 31 1018.3
20260507163536 12 213 3.2 14.5 0.00 0.00 0.00 31 1018.3
20260507163045 12 210 6.4 16.1 0.00 0.00 0.00 31 1018.2
20260507162535 12 80 4.8 16.1 0.00 0.00 0.00 32 1018.2
20260507162035 12 138 8.0 17.7 0.00 0.00 0.00 32 1018.2
20260507161546 12 205 6.4 17.7 0.00 0.00 0.00 33 1018.2
20260507161037 12 124 6.4 17.7 0.00 0.00 0.00 34 1018.2
20260507160535 12 354 4.8 16.1 0.00 0.00 0.00 32 1018.3
20260507160046 12 135 8.0 16.1 0.00 0.00 0.00 32 1018.3
20260507155535 12 161 8.0 16.1 0.00 0.00 0.00 33 1018.2
20260507155037 12 137 6.4 17.7 0.00 0.00 0.00 34 1018.2
20260507154548 12 99 6.4 17.7 0.00 0.00 0.00 33 1018.3
20260507154034 12 65 8.0 17.7 0.00 0.00 0.00 34 1018.2
20260507153535 12 133 4.8 14.5 0.00 0.00 0.00 33 1018.2
20260507153051 12 136 4.8 22.5 0.00 0.00 0.00 35 1018.1
20260507152534 13 163 8.0 22.5 0.00 0.00 0.00 35 1018.0
20260507152036 12 136 11.3 22.5 0.00 0.00 0.00 34 1018.1
20260507151547 13 154 6.4 20.9 0.00 0.00 0.00 35 1018.1
20260507151034 12 142 9.7 20.9 0.00 0.00 0.00 33 1018.1
20260507150535 13 153 4.8 19.3 0.00 0.00 0.00 34 1018.1
20260507150047 13 164 4.8 17.7 0.00 0.00 0.00 33 1018.0
20260507145535 13 223 11.3 17.7 0.00 0.00 0.00 35 1018.0
20260507145034 13 262 8.0 17.7 0.00 0.00 0.00 34 1017.9
20260507144545 12 179 8.0 17.7 0.00 0.00 0.00 34 1018.0
20260507144037 13 136 6.4 17.7 0.00 0.00 0.00 34 1018.0
20260507143535 13 228 11.3 17.7 0.00 0.00 0.00 32 1018.0
20260507143047 13 158 6.4 16.1 0.00 0.00 0.00 36 1018.0
20260507142534 12 90 8.0 16.1 0.00 0.00 0.00 34 1018.0
20260507142034 12 111 8.0 16.1 0.00 0.00 0.00 33 1018.0
20260507141543 13 138 8.0 16.1 0.00 0.00 0.00 34 1018.0
20260507141034 13 192 8.0 22.5 0.00 0.00 0.00 33 1018.0
20260507140534 13 219 11.3 22.5 0.00 0.00 0.00 34 1018.0
20260507140045 13 99 6.4 22.5 0.00 0.00 0.00 34 1017.9
20260507135534 13 172 9.7 22.5 0.00 0.00 0.00 34 1017.8
20260507135033 13 136 4.8 17.7 0.00 0.00 0.00 35 1017.9
20260507134553 13 165 8.0 17.7 0.00 0.00 0.00 33 1018.0
20260507134033 13 155 4.8 22.5 0.00 0.00 0.00 34 1017.9
20260507133533 13 136 8.0 22.5 0.00 0.00 0.00 34 1017.8
20260507133048 13 208 8.0 22.5 0.00 0.00 0.00 34 1017.9
20260507132532 13 203 3.2 9.7 0.00 0.00 0.00 30 1017.8
20260507132036 13 217 3.2 12.9 0.00 0.00 0.00 29 1017.8
20260507131556 13 139 4.8 16.1 0.00 0.00 0.00 29 1017.8
20260507131032 13 100 4.8 16.1 0.00 0.00 0.00 27 1017.7
20260507130532 13 217 6.4 12.9 0.00 0.00 0.00 29 1017.7
20260507130101 13 214 4.8 12.9 0.00 0.00 0.00 27 1017.7
20260507125532 13 119 3.2 8.0 0.00 0.00 0.00 31 1017.7
20260507125033 13 165 3.2 11.3 0.00 0.00 0.00 30 1017.8
20260507124551 13 126 4.8 11.3 0.00 0.00 0.00 29 1017.8
20260507124036 13 123 3.2 11.3 0.00 0.00 0.00 28 1017.8
20260507123533 13 321 1.6 11.3 0.00 0.00 0.00 30 1017.8
20260507123042 12 269 6.4 11.3 0.00 0.00 0.00 28 1017.8
20260507122532 12 83 1.6 14.5 0.00 0.00 0.00 28 1017.9
20260507122033 12 236 6.4 14.5 0.00 0.00 0.00 29 1017.9
20260507121540 12 282 3.2 11.3 0.00 0.00 0.00 29 1017.8
20260507121033 12 104 1.6 17.7 0.00 0.00 0.00 30 1017.8
20260507120532 12 178 11.3 17.7 0.00 0.00 0.00 29 1017.9
20260507120042 12 177 9.7 14.5 0.00 0.00 0.00 27 1017.8
20260507115534 13 211 4.8 14.5 0.00 0.00 0.00 31 1017.8
20260507115033 12 130 3.2 16.1 0.00 0.00 0.00 30 1017.8
20260507114600 12 0 6.4 16.1 0.00 0.00 0.00 29 1017.9
20260507114033 12 209 4.8 16.1 0.00 0.00 0.00 32 1017.9
20260507113533 12 140 3.2 16.1 0.00 0.00 0.00 31 1017.9
20260507113045 12 217 8.0 16.1 0.00 0.00 0.00 31 1018.0
20260507112533 12 187 6.4 11.3 0.00 0.00 0.00 31 1018.0
20260507112032 12 156 4.8 11.3 0.00 0.00 0.00 31 1018.0
20260507111542 12 220 3.2 11.3 0.00 0.00 0.00 32 1018.0
20260507111033 12 214 4.8 9.7 0.00 0.00 0.00 29 1018.1
20260507110533 12 125 3.2 12.9 0.00 0.00 0.00 31 1018.0
20260507110043 11 248 8.0 12.9 0.00 0.00 0.00 32 1017.9
20260507105531 11 302 1.6 8.0 0.00 0.00 0.00 34 1018.0
20260507105034 11 181 3.2 14.5 0.00 0.00 0.00 30 1018.0
20260507104539 11 112 9.7 14.5 0.00 0.00 0.00 32 1017.9
20260507104035 11 115 6.4 12.9 0.00 0.00 0.00 34 1017.8
20260507103537 11 134 6.4 11.3 0.00 0.00 0.00 30 1017.9
20260507103040 11 148 4.8 9.7 0.00 0.00 0.00 35 1017.9